This is the latest recevied weather packets stored in our database for station/object W9KHP-1. If no packets are shown the sender has not sent any weather packets the latest 10 day(s).
| Time | Temp. | Humidity | Pressure | Rain* | Wind** | Luminosity | Snow |
|---|---|---|---|---|---|---|---|
| 1778022339 | 16.11° C | 99% | 1009 hPa | 6.1 mm | - | 7 W/m² | - |
| 1778022035 | 16.11° C | 99% | 1008.9 hPa | 4.32 mm | - | 8 W/m² | - |
| 1778021732 | 16.11° C | 99% | 1008.9 hPa | 4.83 mm | - | 10 W/m² | - |
| 1778021428 | 16.11° C | 99% | 1009.1 hPa | 6.6 mm | - | 12 W/m² | - |
| 1778021125 | 16.11° C | 99% | 1009 hPa | 4.32 mm | - | 15 W/m² | - |
| 1778020823 | 16.11° C | 99% | 1009 hPa | 4.32 mm | - | 19 W/m² | - |
| 1778020520 | 16.11° C | 99% | 1009 hPa | 4.83 mm | - | 19 W/m² | - |
| 1778020216 | 16.11° C | 99% | 1008.8 hPa | 3.05 mm | - | 15 W/m² | - |
| 1778019912 | 16.11° C | 99% | 1008.9 hPa | 3.05 mm | - | 18 W/m² | - |
| 1778019608 | 16.11° C | 99% | 1008.8 hPa | 3.05 mm | - | 26 W/m² | - |
| 1778019306 | 16.11° C | 99% | 1009 hPa | 4.32 mm | - | 28 W/m² | - |
| 1778019002 | 16.11° C | 99% | 1009.2 hPa | 3.05 mm | - | 30 W/m² | - |
| 1778018699 | 16.11° C | 99% | 1009.2 hPa | 4.83 mm | - | 29 W/m² | - |
| 1778018397 | 16.11° C | 99% | 1009.3 hPa | 7.87 mm | - | 31 W/m² | - |
| 1778018095 | 16.11° C | 99% | 1009.3 hPa | 6.1 mm | - | 20 W/m² | - |
| 1778017792 | 16.11° C | 99% | 1009.2 hPa | 4.32 mm | - | 15 W/m² | - |
| 1778017490 | 16.11° C | 99% | 1009.1 hPa | 6.1 mm | - | 27 W/m² | - |
| 1778017187 | 16.11° C | 99% | 1009.2 hPa | 4.83 mm | - | 23 W/m² | - |
| 1778016885 | 16.11° C | 99% | 1009.3 hPa | 3.05 mm | - | 27 W/m² | - |
| 1778016581 | 16.11° C | 99% | 1009.1 hPa | 6.1 mm | - | 33 W/m² | - |
| 1778016278 | 16.11° C | 99% | 1009.3 hPa | 7.87 mm | - | 45 W/m² | - |
| 1778015974 | 15.56° C | 99% | 1009.1 hPa | 8.89 mm | - | 51 W/m² | - |
| 1778015672 | 15.56° C | 99% | 1009.3 hPa | 19.81 mm | - | 47 W/m² | - |
| 1778015368 | 15.56° C | 99% | 1009.4 hPa | 18.03 mm | - | 37 W/m² | - |
| 1778015065 | 15.56° C | 99% | 1009.4 hPa | 4.32 mm | - | 49 W/m² | - |
* Rain latest hour (hover to see other rain measurements)
** Current wind speed in m/s (hover to see current wind gust speed)